パンスターズ彗星

C/2012 A1 ( PanSTARRS )

English version
Home page
Updated on May 3, 2012

---------------------------------------------------------------------

・ プロフィール

発見日 2012年1月2日
発見光度 20.5等
発見者 Pan-STARRS 1 telescope (Haleakala)

・ 写真集

・ 軌道要素

Epoch 2013 Dec. 14.0 TT = JDT 2456640.5
T 2013 Dec. 2.08494 TT                                  MPC
q   7.6029294            (2000.0)            P               Q
z  -0.0002738      Peri.  191.92792     -0.03052679     +0.52641728
 +/-0.0000168      Node   277.97078     +0.97304358     +0.21006204
e   1.0020813      Incl.  120.91092     +0.22859202     -0.82386818
From 127 observations 2012 Jan. 2-Apr. 25, mean residual 0".5.

・ 光度変化

        m1 = 5.5 + 5 logΔ + 10.0 log r

---------------------------------------------------------------------

軌道要素はM.P.E.C. 2012-H90に掲載されたものです。
光度グラフはComet for Windowsで作成したものです。

---------------------------------------------------------------------

Copyright(C) Seiichi Yoshida (comet@aerith.net). All rights reserved.